contact:dominique.lefevre@mio.osupytheas.fr, maurice.libes@osupytheas.fr, didier.mallarino@osupytheas.fr
Project:EMSO http://www.emso-fr.org/EMSO-France
Depth: 2436.0 m
Title:EMSO Ligure Ouest : Data MII capteur MICROCAT
DateTime_Computer,Latitude,Longitude,Temperature,Conductivity,Pressure,DateTime_Instrument
DateTime_Computer,Latitude,Longitude,degC,S m-1,dbar,DateTime_Instrument
2023-01-04T00:02:45Z,42.805,6.029,13.3034,4.60140,2470.474,2023-1-04T02:08:53Z
2023-01-04T00:05:48Z,42.805,6.029,13.3023,4.60106,2470.497,2023-1-04T02:11:56Z
2023-01-04T00:08:52Z,42.805,6.029,13.3032,4.60110,2470.507,2023-1-04T02:14:59Z
2023-01-04T00:11:55Z,42.805,6.029,13.3027,4.60119,2470.483,2023-1-04T02:18:02Z
2023-01-04T00:14:58Z,42.805,6.029,13.3031,4.60104,2470.483,2023-1-04T02:21:05Z
2023-01-04T00:18:01Z,42.805,6.029,13.3021,4.60110,2470.52,2023-1-04T02:24:08Z
2023-01-04T00:21:04Z,42.805,6.029,13.3031,4.60102,2470.507,2023-1-04T02:27:11Z
2023-01-04T00:24:07Z,42.805,6.029,13.3024,4.60122,2470.483,2023-1-04T02:30:14Z
2023-01-04T00:27:10Z,42.805,6.029,13.3029,4.60140,2470.483,2023-1-04T02:33:18Z
2023-01-04T00:30:13Z,42.805,6.029,13.3029,4.60097,2470.497,2023-1-04T02:36:21Z
2023-01-04T00:33:16Z,42.805,6.029,13.3027,4.60104,2470.483,2023-1-04T02:39:24Z
2023-01-04T00:36:19Z,42.805,6.029,13.3024,4.60144,2470.483,2023-1-04T02:42:27Z
2023-01-04T00:39:22Z,42.805,6.029,13.3036,4.60122,2470.507,2023-1-04T02:45:30Z
2023-01-04T00:42:25Z,42.805,6.029,13.3039,4.60133,2470.544,2023-1-04T02:48:33Z
2023-01-04T00:45:28Z,42.805,6.029,13.3048,4.60143,2470.52,2023-1-04T02:51:36Z
2023-01-04T00:48:32Z,42.805,6.029,13.3042,4.60139,2470.483,2023-1-04T02:54:39Z
2023-01-04T00:51:35Z,42.805,6.029,13.3027,4.60133,2470.497,2023-1-04T02:57:42Z
2023-01-04T00:54:38Z,42.805,6.029,13.3026,4.60137,2470.544,2023-1-04T03:00:45Z
2023-01-04T00:57:41Z,42.805,6.029,13.3025,4.60113,2470.52,2023-1-04T03:03:48Z
2023-01-04T01:00:44Z,42.805,6.029,13.3024,4.60128,2470.507,2023-1-04T03:06:51Z
2023-01-04T01:03:47Z,42.805,6.029,13.3021,4.60122,2470.497,2023-1-04T03:09:55Z
2023-01-04T01:06:50Z,42.805,6.029,13.3026,4.60107,2470.53,2023-1-04T03:12:58Z
2023-01-04T01:09:53Z,42.805,6.029,13.3025,4.60088,2470.52,2023-1-04T03:16:01Z
2023-01-04T01:12:56Z,42.805,6.029,13.3038,4.60109,2470.516,2023-1-04T03:19:04Z
2023-01-04T01:15:59Z,42.805,6.029,13.3034,4.60139,2470.483,2023-1-04T03:22:07Z
2023-01-04T01:19:02Z,42.805,6.029,13.3043,4.60128,2470.53,2023-1-04T03:25:10Z
2023-01-04T01:22:05Z,42.805,6.029,13.3031,4.60132,2470.507,2023-1-04T03:28:13Z
2023-01-04T01:25:09Z,42.805,6.029,13.3019,4.60111,2470.507,2023-1-04T03:31:16Z
2023-01-04T01:28:12Z,42.805,6.029,13.3026,4.60113,2470.553,2023-1-04T03:34:19Z
2023-01-04T01:31:15Z,42.805,6.029,13.3036,4.60124,2470.553,2023-1-04T03:37:22Z
2023-01-04T01:34:18Z,42.805,6.029,13.3024,4.60112,2470.567,2023-1-04T03:40:25Z
2023-01-04T01:37:21Z,42.805,6.029,13.3024,4.60104,2470.567,2023-1-04T03:43:28Z
2023-01-04T01:40:24Z,42.805,6.029,13.3015,4.60132,2470.53,2023-1-04T03:46:32Z
2023-01-04T01:43:27Z,42.805,6.029,13.3023,4.60102,2470.544,2023-1-04T03:49:35Z
2023-01-04T01:46:30Z,42.805,6.029,13.3036,4.60112,2470.53,2023-1-04T03:52:38Z
2023-01-04T01:49:33Z,42.805,6.029,13.3026,4.60089,2470.53,2023-1-04T03:55:41Z
2023-01-04T01:52:36Z,42.805,6.029,13.3028,4.60101,2470.567,2023-1-04T03:58:44Z
2023-01-04T01:55:39Z,42.805,6.029,13.3031,4.60112,2470.567,2023-1-04T04:01:47Z
2023-01-04T01:58:42Z,42.805,6.029,13.3026,4.60129,2470.553,2023-1-04T04:04:50Z
2023-01-04T02:01:46Z,42.805,6.029,13.3034,4.60116,2470.577,2023-1-04T04:07:53Z
2023-01-04T02:04:49Z,42.805,6.029,13.3023,4.60099,2470.577,2023-1-04T04:10:56Z
2023-01-04T02:07:52Z,42.805,6.029,13.3022,4.60093,2470.577,2023-1-04T04:13:59Z
2023-01-04T02:10:55Z,42.805,6.029,13.3022,4.60102,2470.591,2023-1-04T04:17:02Z
2023-01-04T02:13:58Z,42.805,6.029,13.3036,4.60088,2470.553,2023-1-04T04:20:05Z
2023-01-04T02:17:01Z,42.805,6.029,13.3037,4.60119,2470.577,2023-1-04T04:23:09Z
2023-01-04T02:20:04Z,42.805,6.029,13.3038,4.60149,2470.591,2023-1-04T04:26:12Z
2023-01-04T02:23:07Z,42.805,6.029,13.3048,4.60110,2470.6,2023-1-04T04:29:15Z
2023-01-04T02:26:10Z,42.805,6.029,13.3039,4.60104,2470.577,2023-1-04T04:32:18Z
2023-01-04T02:29:13Z,42.805,6.029,13.3032,4.60122,2470.591,2023-1-04T04:35:21Z
2023-01-04T02:32:16Z,42.805,6.029,13.3024,4.60110,2470.577,2023-1-04T04:38:24Z
2023-01-04T02:35:19Z,42.805,6.029,13.3026,4.60120,2470.577,2023-1-04T04:41:27Z
2023-01-04T02:38:23Z,42.805,6.029,13.3032,4.60115,2470.577,2023-1-04T04:44:30Z
2023-01-04T02:41:26Z,42.805,6.029,13.3049,4.60127,2470.6,2023-1-04T04:47:33Z
2023-01-04T02:44:29Z,42.805,6.029,13.3029,4.60127,2470.614,2023-1-04T04:50:36Z
2023-01-04T02:47:32Z,42.805,6.029,13.3029,4.60117,2470.614,2023-1-04T04:53:39Z
2023-01-04T02:50:35Z,42.805,6.029,13.3020,4.60097,2470.6,2023-1-04T04:56:42Z
2023-01-04T02:53:38Z,42.805,6.029,13.3029,4.60119,2470.614,2023-1-04T04:59:46Z
2023-01-04T02:56:41Z,42.805,6.029,13.3022,4.60139,2470.637,2023-1-04T05:02:49Z
2023-01-04T02:59:44Z,42.805,6.029,13.3035,4.60122,2470.637,2023-1-04T05:05:52Z
2023-01-04T03:02:47Z,42.805,6.029,13.3030,4.60112,2470.6,2023-1-04T05:08:55Z
2023-01-04T03:05:50Z,42.805,6.029,13.3028,4.60096,2470.646,2023-1-04T05:11:58Z
2023-01-04T03:08:53Z,42.805,6.029,13.3029,4.60102,2470.577,2023-1-04T05:15:01Z
2023-01-04T03:11:56Z,42.805,6.029,13.3035,4.60082,2470.624,2023-1-04T05:18:04Z
2023-01-04T03:14:59Z,42.805,6.029,13.3026,4.60104,2470.6,2023-1-04T05:21:07Z
2023-01-04T03:18:03Z,42.805,6.029,13.3035,4.60119,2470.661,2023-1-04T05:24:10Z
2023-01-04T03:21:06Z,42.805,6.029,13.3044,4.60131,2470.624,2023-1-04T05:27:13Z
2023-01-04T03:24:09Z,42.805,6.029,13.3028,4.60111,2470.624,2023-1-04T05:30:16Z
2023-01-04T03:27:12Z,42.805,6.029,13.3026,4.60107,2470.646,2023-1-04T05:33:19Z
2023-01-04T03:30:15Z,42.805,6.029,13.3032,4.60119,2470.637,2023-1-04T05:36:23Z
2023-01-04T03:33:18Z,42.805,6.029,13.3031,4.60104,2470.646,2023-1-04T05:39:26Z
2023-01-04T03:36:21Z,42.805,6.029,13.3024,4.60106,2470.61,2023-1-04T05:42:29Z
2023-01-04T03:39:24Z,42.805,6.029,13.3023,4.60109,2470.624,2023-1-04T05:45:32Z
2023-01-04T03:42:27Z,42.805,6.029,13.3035,4.60098,2470.646,2023-1-04T05:48:35Z
2023-01-04T03:45:30Z,42.805,6.029,13.3032,4.60110,2470.661,2023-1-04T05:51:38Z
2023-01-04T03:48:33Z,42.805,6.029,13.3026,4.60115,2470.661,2023-1-04T05:54:41Z
2023-01-04T03:51:36Z,42.805,6.029,13.3035,4.60108,2470.637,2023-1-04T05:57:44Z
2023-01-04T03:54:40Z,42.805,6.029,13.3030,4.60122,2470.67,2023-1-04T06:00:47Z
2023-01-04T03:57:43Z,42.805,6.029,13.3039,4.60108,2470.67,2023-1-04T06:03:50Z
2023-01-04T04:00:46Z,42.805,6.029,13.3034,4.60102,2470.661,2023-1-04T06:06:53Z
2023-01-04T04:03:49Z,42.805,6.029,13.3023,4.60110,2470.646,2023-1-04T06:09:56Z
2023-01-04T04:06:52Z,42.805,6.029,13.3029,4.60102,2470.707,2023-1-04T06:13:00Z
2023-01-04T04:09:55Z,42.805,6.029,13.3031,4.60094,2470.67,2023-1-04T06:16:03Z
2023-01-04T04:12:58Z,42.805,6.029,13.3033,4.60107,2470.693,2023-1-04T06:19:06Z
2023-01-04T04:16:01Z,42.805,6.029,13.3029,4.60101,2470.67,2023-1-04T06:22:09Z
2023-01-04T04:19:04Z,42.805,6.029,13.3025,4.60106,2470.67,2023-1-04T06:25:12Z
2023-01-04T04:22:07Z,42.805,6.029,13.3026,4.60107,2470.67,2023-1-04T06:28:15Z
2023-01-04T04:25:10Z,42.805,6.029,13.3019,4.60114,2470.693,2023-1-04T06:31:18Z
2023-01-04T04:28:13Z,42.805,6.029,13.3034,4.60117,2470.707,2023-1-04T06:34:21Z
2023-01-04T04:31:17Z,42.805,6.029,13.3015,4.60112,2470.693,2023-1-04T06:37:24Z
2023-01-04T04:34:20Z,42.805,6.029,13.3025,4.60092,2470.693,2023-1-04T06:40:27Z
2023-01-04T04:37:23Z,42.805,6.029,13.3022,4.60097,2470.717,2023-1-04T06:43:30Z
2023-01-04T04:40:26Z,42.805,6.029,13.3020,4.60095,2470.707,2023-1-04T06:46:33Z
2023-01-04T04:43:29Z,42.805,6.029,13.3031,4.60098,2470.684,2023-1-04T06:49:37Z
2023-01-04T04:46:32Z,42.805,6.029,13.3027,4.60092,2470.693,2023-1-04T06:52:40Z
2023-01-04T04:49:35Z,42.805,6.029,13.3022,4.60106,2470.693,2023-1-04T06:55:43Z
2023-01-04T04:52:38Z,42.805,6.029,13.3021,4.60087,2470.693,2023-1-04T06:58:46Z
2023-01-04T04:55:41Z,42.805,6.029,13.3024,4.60087,2470.693,2023-1-04T07:01:49Z
2023-01-04T04:58:44Z,42.805,6.029,13.3024,4.60087,2470.693,2023-1-04T07:04:52Z
2023-01-04T05:01:47Z,42.805,6.029,13.3026,4.60093,2470.693,2023-1-04T07:07:55Z
2023-01-04T05:04:50Z,42.805,6.029,13.3021,4.60091,2470.707,2023-1-04T07:10:58Z
2023-01-04T05:07:54Z,42.805,6.029,13.3029,4.60092,2470.717,2023-1-04T07:14:01Z
2023-01-04T05:10:57Z,42.805,6.029,13.3024,4.60096,2470.717,2023-1-04T07:17:04Z
2023-01-04T05:14:00Z,42.805,6.029,13.3019,4.60088,2470.684,2023-1-04T07:20:07Z
2023-01-04T05:17:03Z,42.805,6.029,13.3025,4.60092,2470.717,2023-1-04T07:23:10Z
2023-01-04T05:20:06Z,42.805,6.029,13.3023,4.60095,2470.754,2023-1-04T07:26:14Z
2023-01-04T05:23:09Z,42.805,6.029,13.3025,4.60093,2470.717,2023-1-04T07:29:17Z
2023-01-04T05:26:12Z,42.805,6.029,13.3027,4.60099,2470.707,2023-1-04T07:32:20Z
2023-01-04T05:29:15Z,42.805,6.029,13.3030,4.60112,2470.73,2023-1-04T07:35:23Z
2023-01-04T05:32:18Z,42.805,6.029,13.3032,4.60106,2470.754,2023-1-04T07:38:26Z
2023-01-04T05:35:21Z,42.805,6.029,13.3037,4.60103,2470.717,2023-1-04T07:41:29Z
2023-01-04T05:38:24Z,42.805,6.029,13.3036,4.60116,2470.73,2023-1-04T07:44:32Z
2023-01-04T05:41:27Z,42.805,6.029,13.3043,4.60119,2470.693,2023-1-04T07:47:35Z
2023-01-04T05:44:30Z,42.805,6.029,13.3029,4.60098,2470.717,2023-1-04T07:50:38Z
2023-01-04T05:47:34Z,42.805,6.029,13.3028,4.60097,2470.693,2023-1-04T07:53:41Z
2023-01-04T05:50:37Z,42.805,6.029,13.3021,4.60083,2470.717,2023-1-04T07:56:44Z
2023-01-04T05:53:40Z,42.805,6.029,13.3024,4.60087,2470.693,2023-1-04T07:59:47Z
2023-01-04T05:56:43Z,42.805,6.029,13.3024,4.60094,2470.74,2023-1-04T08:02:51Z
2023-01-04T05:59:46Z,42.805,6.029,13.3023,4.60084,2470.717,2023-1-04T08:05:54Z
2023-01-04T06:02:49Z,42.805,6.029,13.3024,4.60084,2470.703,2023-1-04T08:08:57Z
2023-01-04T06:05:52Z,42.805,6.029,13.3022,4.60090,2470.707,2023-1-04T08:12:00Z
2023-01-04T06:08:55Z,42.805,6.029,13.3028,4.60096,2470.73,2023-1-04T08:15:03Z
2023-01-04T06:11:58Z,42.805,6.029,13.3021,4.60092,2470.693,2023-1-04T08:18:06Z
2023-01-04T06:15:01Z,42.805,6.029,13.3030,4.60083,2470.693,2023-1-04T08:21:09Z
2023-01-04T06:18:04Z,42.805,6.029,13.3034,4.60095,2470.693,2023-1-04T08:24:12Z
2023-01-04T06:21:07Z,42.805,6.029,13.3019,4.60078,2470.717,2023-1-04T08:27:15Z
2023-01-04T06:24:11Z,42.805,6.029,13.3025,4.60089,2470.73,2023-1-04T08:30:18Z
2023-01-04T06:27:14Z,42.805,6.029,13.3031,4.60098,2470.67,2023-1-04T08:33:21Z
2023-01-04T06:30:17Z,42.805,6.029,13.3034,4.60098,2470.717,2023-1-04T08:36:24Z
2023-01-04T06:33:20Z,42.805,6.029,13.3029,4.60087,2470.693,2023-1-04T08:39:28Z
2023-01-04T06:36:23Z,42.805,6.029,13.3025,4.60084,2470.754,2023-1-04T08:42:31Z
2023-01-04T06:39:26Z,42.805,6.029,13.3027,4.60114,2470.74,2023-1-04T08:45:34Z
2023-01-04T06:42:29Z,42.805,6.029,13.3026,4.60103,2470.74,2023-1-04T08:48:37Z
2023-01-04T06:45:32Z,42.805,6.029,13.3031,4.60098,2470.726,2023-1-04T08:51:40Z
2023-01-04T06:48:35Z,42.805,6.029,13.3025,4.60076,2470.74,2023-1-04T08:54:43Z
2023-01-04T06:51:38Z,42.805,6.029,13.3024,4.60084,2470.754,2023-1-04T08:57:46Z
2023-01-04T06:54:41Z,42.805,6.029,13.3029,4.60084,2470.717,2023-1-04T09:00:49Z
2023-01-04T06:57:44Z,42.805,6.029,13.3029,4.60075,2470.74,2023-1-04T09:03:52Z
2023-01-04T07:00:48Z,42.805,6.029,13.3021,4.60090,2470.73,2023-1-04T09:06:55Z
2023-01-04T07:03:51Z,42.805,6.029,13.3022,4.60092,2470.754,2023-1-04T09:09:58Z
2023-01-04T07:06:54Z,42.805,6.029,13.3026,4.60087,2470.717,2023-1-04T09:13:01Z
2023-01-04T07:09:57Z,42.805,6.029,13.3020,4.60084,2470.717,2023-1-04T09:16:05Z
2023-01-04T07:13:00Z,42.805,6.029,13.3026,4.60089,2470.73,2023-1-04T09:19:08Z
2023-01-04T07:16:03Z,42.805,6.029,13.3023,4.60094,2470.754,2023-1-04T09:22:11Z
2023-01-04T07:19:06Z,42.805,6.029,13.3023,4.60085,2470.693,2023-1-04T09:25:14Z
2023-01-04T07:22:09Z,42.805,6.029,13.3025,4.60087,2470.754,2023-1-04T09:28:17Z
2023-01-04T07:25:12Z,42.805,6.029,13.3026,4.60102,2470.74,2023-1-04T09:31:20Z
2023-01-04T07:28:15Z,42.805,6.029,13.3026,4.60084,2470.74,2023-1-04T09:34:23Z
2023-01-04T07:31:18Z,42.805,6.029,13.3020,4.60084,2470.693,2023-1-04T09:37:26Z
2023-01-04T07:34:21Z,42.805,6.029,13.3021,4.60094,2470.717,2023-1-04T09:40:29Z
2023-01-04T07:37:25Z,42.805,6.029,13.3026,4.60087,2470.717,2023-1-04T09:43:32Z
2023-01-04T07:40:28Z,42.805,6.029,13.3025,4.60084,2470.73,2023-1-04T09:46:35Z
2023-01-04T07:43:31Z,42.805,6.029,13.3021,4.60084,2470.74,2023-1-04T09:49:38Z
2023-01-04T07:46:34Z,42.805,6.029,13.3025,4.60087,2470.693,2023-1-04T09:52:42Z
2023-01-04T07:49:37Z,42.805,6.029,13.3028,4.60086,2470.693,2023-1-04T09:55:45Z
2023-01-04T07:52:40Z,42.805,6.029,13.3026,4.60087,2470.754,2023-1-04T09:58:48Z
2023-01-04T07:55:43Z,42.805,6.029,13.3018,4.60079,2470.717,2023-1-04T10:01:51Z
2023-01-04T07:58:46Z,42.805,6.029,13.3025,4.60106,2470.717,2023-1-04T10:04:54Z
2023-01-04T08:01:49Z,42.805,6.029,13.3019,4.60079,2470.73,2023-1-04T10:07:57Z
2023-01-04T08:04:52Z,42.805,6.029,13.3026,4.60088,2470.717,2023-1-04T10:11:00Z
2023-01-04T08:07:55Z,42.805,6.029,13.3028,4.60093,2470.717,2023-1-04T10:14:03Z
2023-01-04T08:10:58Z,42.805,6.029,13.3021,4.60085,2470.717,2023-1-04T10:17:06Z
2023-01-04T08:14:02Z,42.805,6.029,13.3021,4.60087,2470.67,2023-1-04T10:20:09Z
2023-01-04T08:17:05Z,42.805,6.029,13.3026,4.60091,2470.74,2023-1-04T10:23:12Z
2023-01-04T08:20:08Z,42.805,6.029,13.3023,4.60098,2470.717,2023-1-04T10:26:16Z
2023-01-04T08:23:11Z,42.805,6.029,13.3021,4.60087,2470.717,2023-1-04T10:29:19Z
2023-01-04T08:26:14Z,42.805,6.029,13.3024,4.60110,2470.67,2023-1-04T10:32:22Z
2023-01-04T08:29:17Z,42.805,6.029,13.3029,4.60096,2470.707,2023-1-04T10:35:25Z
2023-01-04T08:32:20Z,42.805,6.029,13.3033,4.60117,2470.717,2023-1-04T10:38:28Z
2023-01-04T08:35:23Z,42.805,6.029,13.3031,4.60088,2470.717,2023-1-04T10:41:31Z
2023-01-04T08:38:26Z,42.805,6.029,13.3025,4.60099,2470.717,2023-1-04T10:44:34Z
2023-01-04T08:41:29Z,42.805,6.029,13.3021,4.60084,2470.67,2023-1-04T10:47:37Z
2023-01-04T08:44:32Z,42.805,6.029,13.3024,4.60087,2470.693,2023-1-04T10:50:40Z
2023-01-04T08:47:35Z,42.805,6.029,13.3030,4.60104,2470.754,2023-1-04T10:53:43Z
2023-01-04T08:50:39Z,42.805,6.029,13.3025,4.60087,2470.717,2023-1-04T10:56:46Z
2023-01-04T08:53:42Z,42.805,6.029,13.3024,4.60089,2470.693,2023-1-04T10:59:49Z
2023-01-04T08:56:45Z,42.805,6.029,13.3021,4.60094,2470.693,2023-1-04T11:02:53Z
2023-01-04T08:59:48Z,42.805,6.029,13.3029,4.60099,2470.693,2023-1-04T11:05:56Z
2023-01-04T09:02:51Z,42.805,6.029,13.3024,4.60081,2470.707,2023-1-04T11:08:59Z
2023-01-04T09:05:54Z,42.805,6.029,13.3031,4.60088,2470.67,2023-1-04T11:12:02Z
2023-01-04T09:08:57Z,42.805,6.029,13.3026,4.60085,2470.74,2023-1-04T11:15:05Z
2023-01-04T09:12:00Z,42.805,6.029,13.3029,4.60104,2470.717,2023-1-04T11:18:08Z
2023-01-04T09:15:03Z,42.805,6.029,13.3024,4.60090,2470.707,2023-1-04T11:21:11Z
2023-01-04T09:18:06Z,42.805,6.029,13.3024,4.60081,2470.717,2023-1-04T11:24:14Z
2023-01-04T09:21:09Z,42.805,6.029,13.3031,4.60088,2470.67,2023-1-04T11:27:17Z
2023-01-04T09:24:12Z,42.805,6.029,13.3027,4.60108,2470.67,2023-1-04T11:30:20Z
2023-01-04T09:27:16Z,42.805,6.029,13.3024,4.60102,2470.717,2023-1-04T11:33:23Z
2023-01-04T09:30:19Z,42.805,6.029,13.3033,4.60096,2470.684,2023-1-04T11:36:27Z
2023-01-04T09:33:22Z,42.805,6.029,13.3026,4.60086,2470.707,2023-1-04T11:39:30Z
2023-01-04T09:36:25Z,42.805,6.029,13.3025,4.60087,2470.707,2023-1-04T11:42:33Z
2023-01-04T09:39:28Z,42.805,6.029,13.3027,4.60091,2470.693,2023-1-04T11:45:36Z
2023-01-04T09:42:31Z,42.805,6.029,13.3019,4.60084,2470.717,2023-1-04T11:48:39Z
2023-01-04T09:45:34Z,42.805,6.029,13.3024,4.60091,2470.67,2023-1-04T11:51:42Z
2023-01-04T09:48:37Z,42.805,6.029,13.3038,4.60092,2470.693,2023-1-04T11:54:45Z
2023-01-04T09:51:40Z,42.805,6.029,13.3031,4.60084,2470.67,2023-1-04T11:57:48Z
2023-01-04T09:54:43Z,42.805,6.029,13.3019,4.60077,2470.707,2023-1-04T12:00:51Z
2023-01-04T09:57:46Z,42.805,6.029,13.3029,4.60096,2470.67,2023-1-04T12:03:54Z
2023-01-04T10:00:50Z,42.805,6.029,13.3021,4.60081,2470.693,2023-1-04T12:06:57Z
2023-01-04T10:03:53Z,42.805,6.029,13.3019,4.60079,2470.67,2023-1-04T12:10:00Z
2023-01-04T10:06:56Z,42.805,6.029,13.3028,4.60084,2470.67,2023-1-04T12:13:04Z
2023-01-04T10:09:59Z,42.805,6.029,13.3024,4.60078,2470.646,2023-1-04T12:16:07Z
2023-01-04T10:13:02Z,42.805,6.029,13.3021,4.60081,2470.67,2023-1-04T12:19:10Z
2023-01-04T10:16:05Z,42.805,6.029,13.3034,4.60097,2470.684,2023-1-04T12:22:13Z
2023-01-04T10:19:08Z,42.805,6.029,13.3031,4.60107,2470.693,2023-1-04T12:25:16Z
2023-01-04T10:22:11Z,42.805,6.029,13.3027,4.60083,2470.67,2023-1-04T12:28:19Z
2023-01-04T10:25:14Z,42.805,6.029,13.3031,4.60088,2470.707,2023-1-04T12:31:22Z
2023-01-04T10:28:17Z,42.805,6.029,13.3022,4.60095,2470.684,2023-1-04T12:34:25Z
2023-01-04T10:31:20Z,42.805,6.029,13.3022,4.60092,2470.693,2023-1-04T12:37:28Z
2023-01-04T10:34:23Z,42.805,6.029,13.3027,4.60088,2470.646,2023-1-04T12:40:31Z
2023-01-04T10:37:27Z,42.805,6.029,13.3045,4.60108,2470.646,2023-1-04T12:43:34Z
2023-01-04T10:40:30Z,42.805,6.029,13.3021,4.60080,2470.684,2023-1-04T12:46:38Z
2023-01-04T10:43:33Z,42.805,6.029,13.3029,4.60084,2470.684,2023-1-04T12:49:41Z
2023-01-04T10:46:36Z,42.805,6.029,13.3020,4.60089,2470.67,2023-1-04T12:52:44Z
2023-01-04T10:49:39Z,42.805,6.029,13.3025,4.60107,2470.67,2023-1-04T12:55:47Z
2023-01-04T10:52:42Z,42.805,6.029,13.3024,4.60086,2470.624,2023-1-04T12:58:50Z
2023-01-04T10:55:45Z,42.805,6.029,13.3028,4.60092,2470.646,2023-1-04T13:01:53Z
2023-01-04T10:58:48Z,42.805,6.029,13.3030,4.60095,2470.646,2023-1-04T13:04:56Z
2023-01-04T11:01:51Z,42.805,6.029,13.3029,4.60087,2470.646,2023-1-04T13:07:59Z
2023-01-04T11:04:54Z,42.805,6.029,13.3028,4.60094,2470.637,2023-1-04T13:11:02Z
2023-01-04T11:07:57Z,42.805,6.029,13.3028,4.60089,2470.646,2023-1-04T13:14:05Z
2023-01-04T11:11:01Z,42.805,6.029,13.3029,4.60089,2470.67,2023-1-04T13:17:08Z
2023-01-04T11:14:04Z,42.805,6.029,13.3025,4.60094,2470.661,2023-1-04T13:20:12Z
2023-01-04T11:17:07Z,42.805,6.029,13.3029,4.60110,2470.67,2023-1-04T13:23:15Z
2023-01-04T11:20:10Z,42.805,6.029,13.3036,4.60092,2470.624,2023-1-04T13:26:18Z
2023-01-04T11:23:13Z,42.805,6.029,13.3026,4.60088,2470.646,2023-1-04T13:29:21Z
2023-01-04T11:26:16Z,42.805,6.029,13.3029,4.60094,2470.684,2023-1-04T13:32:24Z
2023-01-04T11:29:19Z,42.805,6.029,13.3029,4.60087,2470.67,2023-1-04T13:35:27Z
2023-01-04T11:32:22Z,42.805,6.029,13.3029,4.60089,2470.661,2023-1-04T13:38:30Z
2023-01-04T11:35:25Z,42.805,6.029,13.3038,4.60111,2470.646,2023-1-04T13:41:33Z
2023-01-04T11:38:28Z,42.805,6.029,13.3043,4.60102,2470.637,2023-1-04T13:44:36Z
2023-01-04T11:41:31Z,42.805,6.029,13.3030,4.60102,2470.661,2023-1-04T13:47:39Z
2023-01-04T11:44:34Z,42.805,6.029,13.3034,4.60097,2470.646,2023-1-04T13:50:42Z
2023-01-04T11:47:38Z,42.805,6.029,13.3049,4.60108,2470.661,2023-1-04T13:53:46Z
2023-01-04T11:50:41Z,42.805,6.029,13.3039,4.60122,2470.646,2023-1-04T13:56:49Z
2023-01-04T11:53:44Z,42.805,6.029,13.3024,4.60095,2470.661,2023-1-04T13:59:52Z
2023-01-04T11:56:47Z,42.805,6.029,13.3031,4.60094,2470.624,2023-1-04T14:02:55Z
2023-01-04T11:59:50Z,42.805,6.029,13.3022,4.60092,2470.624,2023-1-04T14:05:58Z
2023-01-04T12:02:53Z,42.805,6.029,13.3029,4.60099,2470.684,2023-1-04T14:09:01Z
2023-01-04T12:05:56Z,42.805,6.029,13.3039,4.60093,2470.624,2023-1-04T14:12:04Z
2023-01-04T12:08:59Z,42.805,6.029,13.3036,4.60108,2470.646,2023-1-04T14:15:07Z
2023-01-04T12:12:02Z,42.805,6.029,13.3036,4.60108,2470.67,2023-1-04T14:18:10Z
2023-01-04T12:15:05Z,42.805,6.029,13.3035,4.60111,2470.637,2023-1-04T14:21:13Z
2023-01-04T12:18:08Z,42.805,6.029,13.3042,4.60110,2470.637,2023-1-04T14:24:16Z
2023-01-04T12:21:12Z,42.805,6.029,13.3038,4.60117,2470.624,2023-1-04T14:27:19Z
2023-01-04T12:24:15Z,42.805,6.029,13.3033,4.60103,2470.637,2023-1-04T14:30:23Z
2023-01-04T12:27:18Z,42.805,6.029,13.3036,4.60123,2470.637,2023-1-04T14:33:26Z
2023-01-04T12:30:21Z,42.805,6.029,13.3036,4.60127,2470.624,2023-1-04T14:36:29Z
2023-01-04T12:33:24Z,42.805,6.029,13.3040,4.60104,2470.646,2023-1-04T14:39:32Z
2023-01-04T12:36:27Z,42.805,6.029,13.3035,4.60124,2470.646,2023-1-04T14:42:35Z
2023-01-04T12:39:30Z,42.805,6.029,13.3038,4.60119,2470.661,2023-1-04T14:45:38Z
2023-01-04T12:42:33Z,42.805,6.029,13.3041,4.60094,2470.637,2023-1-04T14:48:41Z
2023-01-04T12:45:36Z,42.805,6.029,13.3033,4.60102,2470.646,2023-1-04T14:51:44Z
2023-01-04T12:48:39Z,42.805,6.029,13.3037,4.60123,2470.646,2023-1-04T14:54:47Z
2023-01-04T12:51:42Z,42.805,6.029,13.3042,4.60126,2470.67,2023-1-04T14:57:50Z
2023-01-04T12:54:46Z,42.805,6.029,13.3032,4.60119,2470.577,2023-1-04T15:00:54Z
2023-01-04T12:57:49Z,42.805,6.029,13.3040,4.60127,2470.637,2023-1-04T15:03:57Z
2023-01-04T13:00:52Z,42.805,6.029,13.3034,4.60114,2470.637,2023-1-04T15:07:00Z
2023-01-04T13:03:55Z,42.805,6.029,13.3037,4.60125,2470.6,2023-1-04T15:10:03Z
2023-01-04T13:06:58Z,42.805,6.029,13.3051,4.60123,2470.624,2023-1-04T15:13:06Z
2023-01-04T13:10:01Z,42.805,6.029,13.3043,4.60121,2470.67,2023-1-04T15:16:09Z
2023-01-04T13:13:04Z,42.805,6.029,13.3045,4.60121,2470.624,2023-1-04T15:19:12Z
2023-01-04T13:16:07Z,42.805,6.029,13.3034,4.60103,2470.624,2023-1-04T15:22:15Z
2023-01-04T13:19:10Z,42.805,6.029,13.3040,4.60115,2470.67,2023-1-04T15:25:18Z
2023-01-04T13:22:13Z,42.805,6.029,13.3047,4.60135,2470.637,2023-1-04T15:28:21Z
2023-01-04T13:25:16Z,42.805,6.029,13.3039,4.60123,2470.624,2023-1-04T15:31:24Z
2023-01-04T13:28:19Z,42.805,6.029,13.3033,4.60139,2470.661,2023-1-04T15:34:27Z
2023-01-04T13:31:23Z,42.805,6.029,13.3046,4.60135,2470.624,2023-1-04T15:37:31Z
2023-01-04T13:34:26Z,42.805,6.029,13.3028,4.60093,2470.624,2023-1-04T15:40:34Z
2023-01-04T13:37:29Z,42.805,6.029,13.3030,4.60107,2470.637,2023-1-04T15:43:37Z
2023-01-04T13:40:32Z,42.805,6.029,13.3036,4.60112,2470.624,2023-1-04T15:46:40Z
2023-01-04T13:43:35Z,42.805,6.029,13.3037,4.60129,2470.624,2023-1-04T15:49:43Z
2023-01-04T13:46:38Z,42.805,6.029,13.3043,4.60140,2470.637,2023-1-04T15:52:46Z
2023-01-04T13:49:41Z,42.805,6.029,13.3027,4.60108,2470.637,2023-1-04T15:55:49Z
2023-01-04T13:52:44Z,42.805,6.029,13.3033,4.60125,2470.637,2023-1-04T15:58:52Z
2023-01-04T13:55:47Z,42.805,6.029,13.3039,4.60134,2470.637,2023-1-04T16:01:55Z
2023-01-04T13:58:50Z,42.805,6.029,13.3034,4.60102,2470.624,2023-1-04T16:04:58Z
2023-01-04T14:01:53Z,42.805,6.029,13.3029,4.60113,2470.6,2023-1-04T16:08:01Z
2023-01-04T14:04:56Z,42.805,6.029,13.3031,4.60118,2470.637,2023-1-04T16:11:05Z
2023-01-04T14:08:00Z,42.805,6.029,13.3030,4.60099,2470.661,2023-1-04T16:14:08Z
2023-01-04T14:11:03Z,42.805,6.029,13.3045,4.60122,2470.646,2023-1-04T16:17:11Z
2023-01-04T14:14:06Z,42.805,6.029,13.3041,4.60131,2470.624,2023-1-04T16:20:14Z
2023-01-04T14:17:09Z,42.805,6.029,13.3032,4.60107,2470.637,2023-1-04T16:23:17Z
2023-01-04T14:20:12Z,42.805,6.029,13.3024,4.60090,2470.67,2023-1-04T16:26:20Z
2023-01-04T14:23:15Z,42.805,6.029,13.3026,4.60103,2470.67,2023-1-04T16:29:23Z
2023-01-04T14:26:18Z,42.805,6.029,13.3039,4.60112,2470.661,2023-1-04T16:32:26Z
2023-01-04T14:29:21Z,42.805,6.029,13.3042,4.60119,2470.67,2023-1-04T16:35:29Z
2023-01-04T14:32:24Z,42.805,6.029,13.3044,4.60113,2470.624,2023-1-04T16:38:32Z
2023-01-04T14:35:27Z,42.805,6.029,13.3037,4.60131,2470.637,2023-1-04T16:41:35Z
2023-01-04T14:38:30Z,42.805,6.029,13.3058,4.60119,2470.67,2023-1-04T16:44:38Z
2023-01-04T14:41:34Z,42.805,6.029,13.3048,4.60130,2470.637,2023-1-04T16:47:42Z
2023-01-04T14:44:37Z,42.805,6.029,13.3045,4.60154,2470.67,2023-1-04T16:50:45Z
2023-01-04T14:47:40Z,42.805,6.029,13.3046,4.60147,2470.661,2023-1-04T16:53:48Z
2023-01-04T14:50:43Z,42.805,6.029,13.3029,4.60132,2470.624,2023-1-04T16:56:51Z
2023-01-04T14:53:46Z,42.805,6.029,13.3041,4.60120,2470.646,2023-1-04T16:59:54Z
2023-01-04T14:56:49Z,42.805,6.029,13.3036,4.60117,2470.661,2023-1-04T17:02:57Z
2023-01-04T14:59:52Z,42.805,6.029,13.3036,4.60141,2470.661,2023-1-04T17:06:00Z
2023-01-04T15:02:55Z,42.805,6.029,13.3041,4.60135,2470.684,2023-1-04T17:09:03Z
2023-01-04T15:05:58Z,42.805,6.029,13.3041,4.60127,2470.661,2023-1-04T17:12:06Z
2023-01-04T15:09:01Z,42.805,6.029,13.3040,4.60127,2470.67,2023-1-04T17:15:09Z
2023-01-04T15:12:04Z,42.805,6.029,13.3044,4.60135,2470.646,2023-1-04T17:18:12Z